Theta_e
324 327 325 325 325 323 321 321 322 323 325 327 330 329 329 327 326 326 326 321 316 315 320 318 315 316 315 316 315 312 310 309 309 309 309 309 308 307 307 307 307 306 304 302 302 303 303 306 309 310 310 310 310 311 312 313 312 314 315 313 310 312 314 315 314 313 313 314 312 310 310 309 306 306 308 307 307 309 309 310 311 311 311 311 311 311
321 324 325 326 323 321 320 320 319 319 320 321 322 323 325 326 325 325 323 319 315 316 322 321 317 316 315 315 314 313 313 312 310 310 310 309 308 307 307 307 307 307 305 301 301 301 303 306 308 309 309 309 309 309 310 311 310 311 314 312 309 309 310 312 313 311 310 312 313 312 310 307 304 304 306 306 305 306 306 307 307 307 307 308 307 307
322 323 323 320 318 318 319 318 317 318 320 320 321 320 323 326 324 324 323 318 314 317 324 325 319 318 317 315 315 315 315 313 310 310 311 310 309 308 308 307 307 308 306 303 301 301 302 305 306 307 308 308 309 309 309 310 308 308 310 309 307 307 308 308 309 310 310 310 312 312 308 306 304 301 302 304 303 303 304 304 304 303 303 303 302 301
326 329 324 317 317 319 319 320 318 318 319 321 322 320 324 326 323 325 324 319 317 318 321 323 320 317 316 317 318 317 315 314 312 311 310 310 310 309 308 307 307 308 306 304 302 300 300 303 304 305 306 307 308 307 307 308 306 305 306 306 305 305 306 307 307 308 310 310 309 308 305 305 304 300 300 300 299 300 301 300 299 298 297 297 296 295
325 328 323 318 319 320 321 322 321 321 323 324 324 322 323 324 324 325 324 322 325 326 321 320 322 323 323 321 319 319 317 315 314 313 312 310 310 310 309 308 307 307 305 303 303 301 300 301 303 304 305 307 307 306 307 306 305 305 304 304 304 305 305 305 306 308 310 309 306 303 300 300 300 297 297 298 296 296 297 295 294 293 293 293 292 292
322 321 320 322 321 320 321 323 324 325 324 325 326 325 322 324 325 324 325 324 329 333 325 319 326 334 334 327 323 323 323 321 318 315 314 311 309 310 310 309 308 307 305 303 303 301 300 301 302 303 304 306 306 306 306 306 305 306 305 303 303 305 305 304 306 309 311 310 307 303 300 297 295 293 293 295 294 293 293 292 291 291 291 292 292 292
322 319 320 326 326 324 323 322 325 325 322 325 328 326 323 324 324 324 325 325 329 333 324 318 327 333 329 326 326 328 328 327 322 319 316 313 310 309 309 308 308 306 304 303 302 301 300 300 302 302 303 305 306 305 306 305 305 305 305 304 303 304 305 303 305 308 310 309 307 306 303 299 297 293 291 292 293 292 291 291 290 290 291 291 291 291
322 321 320 323 326 327 325 324 326 322 323 328 327 328 327 322 324 325 323 325 329 329 326 324 327 327 325 325 326 326 326 325 322 321 319 315 311 310 309 308 308 306 304 303 303 302 300 300 301 302 302 305 306 305 305 305 304 304 304 304 303 304 304 303 305 307 307 308 306 304 302 298 297 295 291 290 290 290 290 290 290 290 290 290 291 290
322 325 324 322 324 325 325 329 328 321 323 328 325 327 330 326 329 330 326 327 327 324 329 331 325 324 328 329 325 323 324 325 323 322 321 318 314 311 309 309 307 306 304 303 303 302 301 301 301 302 302 304 305 305 304 304 304 303 303 302 302 302 303 303 304 305 305 306 305 303 300 295 293 293 290 289 289 289 289 290 289 289 290 289 289 289
321 322 322 323 323 324 327 331 327 322 321 323 322 327 329 328 331 333 330 329 328 326 329 330 326 325 328 329 326 323 325 328 323 321 320 318 317 313 310 309 307 306 304 303 302 301 301 301 302 302 302 304 304 303 304 304 304 303 302 301 301 301 301 302 303 303 303 303 303 302 299 295 291 290 289 288 289 289 289 289 289 289 289 289 289 288
320 316 316 321 322 323 326 323 320 322 321 320 326 332 333 331 332 334 332 327 328 327 326 328 328 326 327 332 330 325 328 329 324 324 325 322 321 316 311 308 307 305 304 303 302 301 301 301 301 301 302 303 303 302 303 303 302 303 302 301 301 300 300 301 301 302 302 300 301 300 298 294 290 289 289 288 288 288 289 289 288 288 288 288 288 288
320 318 318 320 320 322 325 320 317 320 320 323 335 335 332 333 331 332 331 327 328 329 328 328 325 322 326 331 331 327 326 325 323 325 328 328 328 320 311 308 306 305 303 302 302 301 300 300 300 300 301 301 301 300 301 302 301 302 302 301 300 299 300 300 299 300 300 298 297 297 296 294 291 290 289 289 288 288 289 288 288 288 287 287 287 287
322 324 323 318 317 321 326 324 321 320 320 325 332 330 328 330 329 331 331 328 328 327 323 321 320 322 325 325 326 325 324 325 323 320 322 325 328 323 312 307 306 304 303 302 301 302 300 299 298 299 299 299 299 299 300 301 300 300 301 300 300 299 298 297 297 297 297 296 295 294 294 292 291 290 290 289 289 289 289 289 288 288 287 287 287 287
325 326 322 318 318 321 323 323 323 323 322 323 326 328 328 328 331 335 332 327 328 327 319 316 320 325 326 325 324 321 320 324 323 320 319 320 323 322 314 308 306 304 303 302 301 301 300 299 298 298 299 298 298 299 299 299 300 299 299 299 299 298 296 295 294 295 295 294 293 293 292 292 291 290 290 289 289 289 289 289 288 288 288 288 287 287
326 327 324 320 322 322 319 320 325 326 322 321 323 325 327 330 335 338 334 331 333 331 320 316 323 330 331 329 325 321 321 324 324 322 319 316 316 316 312 308 306 304 302 302 301 301 300 299 298 298 298 298 298 298 298 298 298 298 298 297 297 295 294 294 293 293 293 293 292 291 291 291 291 290 289 289 289 289 289 289 289 289 288 288 288 287
322 327 327 320 320 321 319 321 324 325 322 321 323 324 325 330 330 329 330 329 327 328 323 320 325 330 328 324 320 320 322 321 321 320 318 317 314 312 312 309 305 304 302 301 301 301 299 298 298 298 297 298 297 297 297 297 297 297 297 296 295 294 294 294 294 293 292 292 291 291 291 291 290 290 289 289 289 289 289 289 289 289 288 288 288 287
323 327 323 316 318 319 319 321 322 324 324 321 320 323 324 324 324 326 327 323 321 325 326 323 326 328 325 322 319 320 322 322 322 320 319 318 314 313 313 308 304 303 302 301 301 300 299 297 297 297 297 297 297 296 297 297 297 297 296 295 294 294 295 295 294 294 293 292 291 290 290 290 289 289 289 289 289 289 289 289 289 288 288 288 288 287
326 329 322 317 321 317 314 321 323 321 322 322 323 324 321 321 327 330 329 327 327 329 327 324 325 327 325 325 323 320 321 322 322 322 319 315 314 315 312 306 304 304 302 301 301 299 297 297 297 297 297 297 297 296 296 297 297 296 296 295 295 295 295 295 295 294 293 292 291 290 290 290 289 289 290 289 289 289 288 288 288 288 288 288 288 287
325 327 323 318 320 317 313 320 324 319 317 322 326 324 323 328 330 327 327 331 331 331 330 327 325 323 322 325 326 322 323 324 322 320 319 317 317 315 309 306 304 303 302 301 300 299 297 296 296 296 296 296 296 296 296 296 296 296 295 295 295 295 295 295 295 294 294 292 291 290 289 289 289 289 289 289 289 288 288 288 288 288 288 288 287 287
324 325 326 318 315 317 316 319 324 321 316 318 320 319 322 327 328 326 326 328 330 330 331 330 326 324 323 325 325 323 325 329 324 320 320 320 317 312 308 306 304 302 302 300 300 299 297 295 295 296 296 296 296 296 296 295 295 295 295 294 294 295 295 295 294 294 293 292 291 290 289 289 289 289 289 289 288 288 288 288 288 288 288 288 287 287
324 323 326 319 314 317 320 321 322 321 318 318 320 320 321 321 322 325 324 325 329 331 332 331 326 325 327 325 324 324 324 325 324 322 322 320 316 312 308 306 304 302 301 300 299 299 296 295 295 295 295 295 295 296 295 295 294 294 295 294 294 294 294 294 293 293 293 291 291 290 289 289 289 289 289 288 288 288 288 288 288 288 288 287 287 287
323 325 328 324 318 320 323 321 318 318 319 319 320 321 320 320 322 325 325 323 325 326 331 332 326 325 329 324 320 322 322 321 321 321 321 319 316 313 309 306 304 302 301 300 299 299 296 294 294 294 295 295 295 295 294 294 293 293 294 294 294 294 294 293 293 292 292 291 290 290 289 289 289 288 288 288 288 288 288 288 288 288 288 287 287 287
324 328 330 326 321 321 321 318 316 318 319 317 320 322 321 320 322 326 327 325 324 324 326 327 326 325 324 322 323 323 321 320 319 317 318 318 315 312 309 306 304 302 301 300 299 298 295 294 294 293 293 294 294 294 293 293 293 293 293 293 293 293 293 293 292 292 292 291 290 289 289 289 289 288 288 288 287 287 288 288 288 288 287 287 287 286
324 326 327 325 322 321 321 320 317 317 317 317 321 324 322 319 320 324 326 325 327 327 325 325 327 323 318 320 324 323 320 321 320 317 316 317 316 314 311 307 304 302 301 300 299 297 295 294 294 292 292 293 293 293 293 293 292 292 293 293 293 293 292 292 292 291 291 290 290 289 289 289 288 288 288 288 287 287 287 287 287 287 287 287 287 286
322 325 327 327 326 325 326 324 320 318 317 320 323 322 320 319 320 322 323 323 325 327 325 326 327 322 320 321 321 319 320 320 320 319 318 317 317 315 312 308 305 303 302 301 299 298 296 294 293 292 292 292 292 293 293 292 292 292 292 292 292 292 292 292 291 291 290 290 290 289 289 289 288 288 288 288 287 287 287 287 287 287 287 287 287 286
322 325 325 326 328 328 328 326 324 321 317 320 324 321 318 319 320 321 322 322 323 324 324 325 324 322 323 323 320 320 321 321 322 323 320 318 316 314 312 310 306 303 302 300 299 298 296 295 293 292 292 292 292 292 292 292 292 291 291 292 292 291 291 291 291 291 290 290 290 289 289 289 288 288 288 288 288 287 287 287 287 287 287 287 287 286
327 327 322 323 326 325 326 327 325 323 320 320 322 321 319 319 319 320 322 323 324 325 324 323 322 322 322 322 322 324 325 326 326 324 322 320 318 314 313 310 305 303 302 300 299 298 296 295 294 292 292 292 292 292 292 292 292 291 291 291 291 291 291 290 290 290 290 290 289 289 289 289 288 288 288 288 288 287 287 287 287 287 287 286 286 286
328 327 322 323 325 322 324 326 323 322 322 321 321 320 319 318 318 320 322 322 324 327 325 322 322 323 322 321 322 323 325 327 327 326 325 322 318 314 312 309 306 304 302 300 299 298 297 296 294 292 292 292 292 292 292 292 292 291 291 291 290 290 290 290 290 289 289 289 289 289 289 288 288 288 288 288 287 287 286 287 287 287 287 286 286 286
324 325 323 323 324 323 323 323 321 321 321 320 321 320 319 319 319 319 320 320 322 324 323 322 324 324 322 319 320 320 322 322 321 322 321 317 316 315 312 311 309 305 302 301 299 298 297 296 295 293 292 292 292 291 291 292 292 291 290 290 290 289 289 289 289 289 289 288 289 289 288 288 287 288 287 287 286 286 286 286 287 287 286 286 286 287
320 325 325 323 322 323 323 322 321 322 321 320 320 320 319 319 318 318 319 319 320 321 321 321 323 322 320 320 322 322 321 319 317 317 317 316 318 318 314 313 311 306 303 301 299 298 297 296 295 293 292 292 291 291 291 291 291 291 290 290 289 289 289 289 289 288 288 288 288 288 287 287 287 287 287 286 286 286 286 286 287 286 286 286 286 286
317 323 323 321 323 323 322 322 322 322 321 321 321 320 319 318 318 317 318 318 319 320 319 320 321 321 320 321 322 320 319 317 316 317 316 315 317 317 315 312 309 305 303 301 300 299 297 296 295 293 292 292 291 291 291 291 291 291 290 289 289 289 288 288 288 288 288 287 287 287 287 286 286 286 286 286 286 286 286 286 286 286 286 286 286 286
316 320 321 321 324 323 322 322 321 320 320 321 321 321 319 318 317 317 317 318 318 319 319 320 320 320 319 320 320 319 319 319 319 318 316 315 315 315 315 313 309 306 304 302 300 299 298 297 296 294 292 292 291 291 290 290 290 290 290 289 289 289 288 288 288 288 287 287 287 286 286 286 286 285 285 285 285 286 286 286 286 286 286 286 286 286
318 320 319 320 323 323 322 322 320 319 321 322 322 321 319 318 318 317 317 317 317 318 319 320 320 318 318 320 320 320 321 321 319 318 316 315 314 312 311 311 310 307 305 303 301 300 299 297 295 294 293 292 292 291 290 290 290 290 290 289 289 288 288 288 288 288 287 287 287 286 286 285 285 285 285 285 285 286 286 286 286 286 286 286 286 285
317 319 318 318 322 323 321 321 320 322 324 325 324 323 321 319 318 318 318 316 316 316 317 318 319 318 318 320 320 319 319 319 317 317 316 315 314 313 312 310 309 308 306 304 302 300 299 297 295 294 294 293 292 291 291 291 290 290 290 289 289 288 288 288 288 287 287 287 286 286 285 285 285 285 285 285 285 285 285 285 286 286 286 286 285 285
316 317 317 316 320 321 319 320 323 324 324 323 322 320 321 320 319 318 318 317 316 316 316 317 317 317 318 318 318 318 319 318 318 317 316 314 313 313 314 312 308 307 306 304 303 302 299 296 295 294 294 293 292 292 291 290 290 290 290 289 289 288 288 288 287 287 287 287 286 286 285 285 285 285 284 284 284 284 284 285 286 286 286 285 285 285
316 317 317 316 318 319 319 321 324 324 322 322 320 316 317 321 322 320 320 319 317 316 316 316 316 315 316 316 316 318 317 315 315 315 314 315 314 311 312 311 308 306 306 304 303 302 298 296 296 295 294 293 293 292 291 291 290 290 289 289 289 288 288 288 287 287 287 287 286 286 285 285 285 284 284 284 284 283 284 284 285 285 285 285 284 285
318 317 317 317 318 318 320 322 322 321 321 322 322 317 316 321 323 322 323 321 318 317 316 316 316 315 315 316 316 315 312 311 313 316 315 315 312 307 307 309 307 306 305 301 299 299 298 297 297 296 294 294 293 292 292 291 290 290 289 289 289 289 288 288 288 288 288 287 287 286 286 285 285 284 284 284 283 283 284 284 284 284 284 284 284 284
317 317 317 318 318 317 320 322 321 322 322 321 321 318 315 319 322 320 321 320 319 321 320 317 317 317 316 317 316 313 311 312 315 317 315 311 306 304 306 306 303 300 300 299 298 298 298 297 297 296 295 294 293 292 292 291 291 290 289 289 289 288 288 288 288 288 288 287 287 286 286 285 285 285 284 284 283 284 284 284 284 284 284 284 284 285
315 316 315 317 318 317 319 321 322 323 322 320 319 313 310 315 319 317 319 320 319 320 318 316 317 318 316 316 315 313 313 314 317 318 314 308 306 306 308 307 301 297 297 298 298 298 298 297 297 296 296 295 293 293 292 292 291 290 289 289 289 289 288 288 288 288 288 287 287 286 286 286 285 285 285 284 284 284 284 283 283 283 283 284 284 285
313 315 314 316 318 318 318 320 320 320 320 319 316 309 307 312 317 319 322 320 314 311 310 312 316 315 315 315 313 313 315 316 317 315 309 305 305 303 303 305 303 297 296 296 297 297 297 297 297 296 296 295 294 293 292 292 291 290 290 290 289 289 289 289 289 288 288 288 287 287 286 286 286 285 285 285 285 284 284 284 283 283 283 283 283 283
312 314 314 316 317 317 318 320 319 320 321 319 315 309 307 311 315 320 322 317 311 309 307 310 315 313 311 312 311 312 312 306 304 304 301 302 305 302 297 296 296 295 294 295 296 296 296 296 296 296 295 295 295 294 293 292 291 291 291 290 289 289 290 290 289 288 288 288 287 287 287 286 286 286 286 285 285 285 284 284 283 283 283 283 283 282
313 313 313 315 316 316 318 319 318 320 319 314 309 305 306 313 320 319 313 308 309 310 307 306 310 310 307 308 309 308 304 297 296 299 300 301 304 303 297 294 294 294 295 295 296 296 296 296 296 296 296 296 296 295 294 293 292 291 290 289 290 291 290 289 289 288 288 288 287 287 287 287 286 286 286 285 285 284 284 284 283 283 283 282 282 282
314 314 314 314 315 316 317 317 319 321 315 308 307 305 307 317 320 313 307 304 304 307 307 306 307 307 306 305 302 299 297 296 295 297 298 297 298 297 295 295 295 294 293 294 295 297 297 296 295 295 296 296 296 296 295 294 292 291 290 290 291 291 290 289 289 288 288 288 288 287 287 287 287 286 286 286 285 285 284 284 283 283 282 282 282 281
314 315 315 315 316 316 318 318 318 317 310 307 309 311 312 315 314 311 312 308 302 303 307 306 304 304 305 302 297 294 295 295 295 295 296 295 295 294 293 292 291 291 291 292 293 295 296 294 292 292 293 294 294 294 294 293 292 290 290 291 291 291 289 289 289 288 288 288 288 288 287 287 287 287 286 286 285 285 284 284 283 283 282 282 281 281
315 313 314 317 316 314 316 315 311 309 306 304 306 307 306 306 306 308 312 310 304 303 304 304 304 303 299 296 295 294 294 294 294 294 295 294 293 293 292 290 289 289 290 291 292 293 294 293 291 291 291 291 292 293 293 293 292 291 291 292 292 291 291 290 289 289 288 288 288 288 288 287 287 287 286 286 285 285 284 284 283 282 282 281 281 280
311 309 310 314 314 311 311 309 305 304 305 304 303 303 301 300 300 302 305 305 303 302 301 302 304 302 295 294 297 297 295 294 294 293 292 292 291 290 290 289 288 288 289 290 291 292 292 292 291 291 291 291 291 292 292 292 293 293 292 292 292 292 292 291 290 290 289 289 289 288 288 287 287 286 286 286 285 285 285 284 284 283 282 281 281 280
308 306 308 312 314 313 312 309 305 304 303 303 303 302 300 298 297 297 299 300 300 299 299 301 302 299 295 296 300 299 295 294 294 293 291 291 290 290 289 288 287 287 288 289 290 292 292 292 291 291 291 291 291 291 292 292 292 292 292 292 292 292 292 291 291 291 290 290 290 289 288 287 287 286 286 285 285 285 284 284 283 283 282 281 280 280
309 307 309 312 312 311 309 304 300 300 300 300 301 301 301 300 297 294 294 295 296 296 296 296 298 298 297 298 299 299 296 293 294 294 292 290 291 291 290 287 285 287 289 289 290 292 293 292 292 291 291 291 291 291 292 292 292 292 291 291 291 291 291 291 291 291 291 290 290 290 289 289 288 287 287 286 286 285 285 284 283 283 283 282 282 281
308 307 309 311 308 307 306 302 299 301 303 303 302 301 301 300 296 292 291 293 295 296 296 295 295 297 298 297 296 298 298 293 292 294 293 292 292 291 288 285 285 287 288 288 289 291 292 292 292 291 290 290 291 291 292 292 292 292 291 290 290 290 290 290 290 290 290 290 290 290 289 289 289 288 288 287 286 286 286 285 284 284 284 284 283 282
307 308 308 308 308 308 307 304 303 307 310 308 304 302 301 298 295 293 293 295 296 296 296 296 294 293 294 293 292 297 300 294 290 292 294 293 292 289 285 284 285 287 288 288 289 289 290 291 290 290 289 289 290 290 290 290 290 290 290 289 289 288 289 288 288 289 289 289 289 289 288 288 288 288 288 287 286 286 286 285 284 283 283 283 282 281
307 308 306 307 309 308 307 304 303 307 313 311 306 303 300 296 294 294 294 295 296 295 295 297 297 295 293 291 289 293 299 295 289 291 293 291 288 286 285 286 286 287 287 288 289 289 289 289 288 288 288 288 288 288 288 288 288 288 287 287 287 287 287 287 287 287 287 287 287 287 287 287 287 287 287 286 286 285 285 284 284 283 282 281 280 280
Wind_Speed
4 3 2 5 7 8 8 9 8 5 5 4 3 3 4 4 5 5 4 6 4 4 6 9 9 11 11 12 10 6 6 8 11 10 9 9 8 9 10 10 11 9 7 12 18 19 18 19 21 20 19 19 19 19 19 21 23 23 24 25 26 27 28 30 30 30 30 29 28 27 27 27 26 26 26 25 25 24 24 23 22 21 21 21 21 21
4 4 7 10 10 8 7 8 6 3 2 1 2 2 4 4 6 6 4 4 1 3 6 5 7 11 12 12 10 4 7 10 13 13 13 12 11 10 11 12 10 6 6 11 15 18 19 20 21 21 21 20 21 21 21 21 22 23 24 26 27 28 29 29 30 31 29 28 27 26 27 28 28 27 27 27 26 25 25 23 22 22 21 21 21 21
2 4 12 11 6 4 3 5 5 5 5 3 2 2 4 3 4 6 4 3 0 3 5 4 4 10 12 11 10 7 9 11 12 14 15 14 13 11 12 12 10 8 7 9 12 16 20 21 21 22 22 22 23 23 23 22 23 23 25 27 27 28 28 28 29 29 27 26 26 27 29 30 29 27 27 27 26 26 25 24 23 22 22 22 23 24
3 6 12 9 7 6 4 3 6 3 4 4 3 2 4 4 2 4 5 3 1 2 3 4 5 8 9 8 10 11 10 8 9 12 13 12 12 13 14 13 12 13 12 11 10 13 18 21 21 23 23 23 23 23 24 24 24 24 25 27 28 28 28 28 28 27 26 27 28 29 30 30 29 28 27 28 27 26 26 26 25 25 26 26 27 27
6 7 4 6 8 8 6 4 6 4 3 5 6 6 5 5 6 6 4 3 3 4 2 3 6 8 7 9 11 8 4 7 9 9 11 11 11 11 10 11 12 13 13 13 12 12 17 20 21 23 23 23 24 24 25 26 26 26 26 27 28 28 28 28 28 26 26 29 31 32 31 29 30 29 28 29 28 27 28 29 29 29 28 28 28 27
8 6 3 7 6 7 7 6 6 7 5 5 5 10 10 8 8 5 2 4 4 5 3 2 4 7 5 7 10 5 3 7 7 7 12 13 10 10 10 11 10 10 11 12 13 14 17 19 21 23 24 24 24 25 27 28 27 27 27 26 27 28 27 28 27 27 28 30 32 33 33 32 32 30 28 30 31 31 31 32 31 30 28 27 27 26
5 6 4 6 6 7 7 5 6 7 5 4 6 9 9 7 5 4 1 2 1 4 4 1 2 7 6 4 8 5 5 10 8 8 12 11 9 10 11 10 10 10 10 10 11 14 17 20 22 23 26 26 26 26 28 28 28 28 27 26 27 27 27 27 28 29 31 32 32 32 33 33 34 32 29 31 33 33 33 33 32 30 28 27 25 25
4 6 5 6 6 6 6 5 6 8 7 4 5 6 7 7 5 5 5 4 3 3 4 2 2 5 8 6 6 6 8 12 11 11 13 11 10 11 10 9 10 12 12 12 12 13 17 22 25 26 28 28 27 28 29 29 29 28 28 27 27 27 27 27 29 31 32 32 32 33 33 33 34 35 33 33 34 34 34 33 32 30 28 26 25 24
4 7 8 8 6 5 6 5 7 10 6 6 4 7 6 6 5 3 5 3 1 2 4 5 1 3 8 5 2 1 6 11 12 14 14 13 11 10 10 10 11 12 12 13 13 14 18 24 27 28 29 29 28 29 30 30 29 28 28 28 27 27 28 29 30 32 31 32 33 33 34 34 34 36 36 35 35 34 34 33 32 30 28 27 25 24
1 5 7 8 6 7 5 3 7 10 6 4 5 7 6 5 5 5 5 3 2 1 6 7 3 4 7 4 2 1 3 9 11 12 12 10 9 9 10 10 10 10 10 11 12 15 20 25 28 28 28 28 28 29 30 29 29 28 28 28 28 28 29 30 32 32 32 32 33 33 36 37 37 38 37 36 35 35 34 33 32 30 29 27 26 24
2 1 2 3 4 5 4 3 3 6 6 6 6 7 7 6 5 4 3 4 1 4 7 9 9 7 6 3 4 3 4 7 7 8 9 7 6 8 9 9 10 9 10 10 10 13 19 23 25 26 27 28 27 27 29 29 29 29 29 29 29 29 30 32 33 33 32 32 33 34 37 40 41 40 39 38 37 35 34 34 32 31 29 27 26 25
5 2 1 2 2 4 6 4 2 2 4 6 5 5 4 4 4 4 4 3 1 6 6 7 8 8 7 6 4 5 6 5 6 7 8 8 7 8 8 8 9 9 9 9 9 11 15 18 21 24 26 27 26 27 29 30 30 30 30 30 31 31 32 33 33 33 32 33 34 36 39 42 42 42 41 40 39 37 36 35 33 32 30 28 26 25
3 3 3 3 1 4 6 4 3 5 3 5 5 6 3 2 3 2 3 0 4 7 4 2 1 4 9 9 7 9 11 10 9 8 8 8 8 7 8 8 8 7 9 10 9 10 11 14 19 23 26 27 28 28 30 31 31 31 31 32 33 33 34 34 33 33 33 34 36 39 41 42 42 41 41 41 40 39 37 36 35 33 31 29 27 25
3 5 2 0 3 3 8 7 3 1 3 5 6 6 5 3 0 3 4 2 4 5 4 2 1 3 6 6 11 15 16 13 10 9 8 8 8 8 8 8 8 8 9 10 10 10 10 15 21 24 26 28 29 30 31 31 32 32 32 33 34 36 35 34 33 33 34 36 37 40 41 41 42 41 40 40 40 38 37 35 34 32 31 29 28 26
5 6 4 7 3 5 10 9 6 6 5 5 5 6 6 6 4 4 4 3 4 3 4 2 2 4 3 4 8 11 10 9 8 8 7 7 7 5 4 7 8 9 9 9 10 11 12 18 23 25 27 29 30 31 31 32 33 33 34 35 36 37 37 34 33 34 36 37 39 40 41 41 41 41 40 39 38 37 36 34 32 31 30 28 27 26
5 6 5 4 1 8 10 5 5 7 2 2 2 5 4 5 5 3 3 5 3 2 3 2 3 5 5 5 7 6 7 7 7 8 7 7 4 2 4 7 8 9 9 9 10 10 12 19 24 25 27 29 30 31 32 33 35 35 36 36 37 38 38 36 35 35 36 38 40 40 41 41 41 41 40 39 38 36 34 32 31 30 29 27 26 25
3 5 4 2 2 4 6 3 4 4 3 2 3 4 4 4 5 2 3 1 2 3 4 3 5 5 3 7 9 7 9 8 7 9 8 7 3 3 6 7 8 9 10 10 10 10 12 18 23 25 28 30 31 33 33 35 37 37 38 37 37 37 38 37 36 36 37 39 41 41 41 41 41 41 40 39 38 35 34 32 31 30 29 27 26 25
5 2 4 2 2 3 1 3 3 2 4 5 3 6 2 2 2 2 2 3 3 4 4 3 7 6 2 6 4 1 7 10 10 11 8 6 4 7 8 7 8 9 9 9 9 10 13 19 23 26 28 31 33 34 35 36 37 37 38 39 38 39 39 39 38 38 38 40 42 42 42 42 41 41 39 38 37 36 35 33 31 30 29 27 26 25
4 2 4 1 3 2 3 3 2 5 2 5 4 4 4 2 2 2 2 2 1 4 5 3 6 5 5 5 2 3 9 11 13 12 8 8 9 10 8 7 8 7 8 9 9 9 11 17 22 25 27 29 31 32 34 35 36 37 39 39 39 39 40 40 39 40 40 41 42 43 43 42 41 40 39 38 37 36 35 34 32 31 29 28 27 26
3 3 3 1 0 1 2 2 4 1 2 3 1 2 2 2 3 3 3 3 3 3 4 3 3 4 6 7 7 9 11 12 13 11 9 12 13 10 8 8 8 9 9 10 10 9 10 16 22 25 27 29 30 32 32 34 36 38 39 39 39 39 39 39 40 40 41 41 43 43 43 42 41 41 40 39 38 37 35 34 33 31 30 29 28 26
2 3 3 2 2 1 2 4 8 10 7 4 4 4 3 1 2 1 1 2 4 3 3 4 6 5 4 5 9 11 11 12 11 10 10 12 12 10 9 8 9 10 10 10 10 9 10 16 21 24 27 29 31 32 33 35 37 38 39 39 39 39 40 40 40 41 41 42 43 44 44 43 42 41 40 40 39 37 36 34 33 32 31 29 28 27
4 3 3 2 1 4 5 4 6 9 8 7 7 9 9 6 4 2 3 2 2 3 4 3 8 8 4 4 7 8 9 10 10 10 11 11 11 10 8 9 10 10 10 10 10 9 10 16 21 24 27 29 30 32 33 34 35 37 38 39 39 39 41 42 42 42 42 43 44 45 45 44 43 42 41 41 39 38 37 35 34 33 32 30 29 28
4 3 3 3 4 5 6 5 3 4 3 3 3 5 7 6 6 5 5 4 2 2 2 2 6 9 3 4 5 6 6 6 6 7 9 10 10 8 7 8 9 9 8 9 9 9 11 16 21 23 26 28 30 31 32 33 35 36 38 39 39 40 41 42 42 42 43 44 45 45 45 44 44 43 42 42 41 39 38 36 35 34 32 31 30 28
3 3 3 1 2 3 4 4 3 2 1 1 2 2 6 8 7 5 4 3 3 4 3 2 6 8 2 1 3 4 5 5 5 5 7 9 8 5 6 7 7 7 7 8 8 8 11 16 19 21 24 26 29 31 33 35 36 37 38 39 40 41 41 41 42 43 44 45 45 45 45 45 44 44 43 43 42 40 39 37 36 35 33 32 30 29
3 4 3 2 1 2 3 3 2 1 2 3 3 5 7 10 7 3 1 2 2 8 8 4 10 9 2 4 3 3 4 5 7 6 5 7 9 6 5 5 6 7 7 8 8 8 10 13 15 19 22 25 28 30 32 34 35 36 38 39 40 40 40 41 43 44 45 45 45 44 45 45 45 45 44 43 43 41 40 38 37 36 34 32 31 29
6 5 6 6 8 8 7 7 6 3 3 2 4 7 10 11 11 7 2 4 7 7 8 7 13 10 2 4 5 5 4 4 8 7 4 6 9 7 5 6 7 8 9 10 10 9 10 11 14 19 23 26 28 29 31 33 34 35 36 38 39 40 40 41 43 44 45 45 45 45 45 45 46 46 45 44 43 42 41 39 38 36 35 33 32 30
4 4 10 13 13 14 13 9 5 8 8 8 10 12 13 14 14 10 5 7 7 1 4 13 16 14 10 6 5 6 3 5 7 6 6 7 8 6 6 6 6 7 8 9 9 9 10 12 14 19 23 26 27 29 31 32 34 35 36 37 39 39 40 41 42 43 44 44 44 44 44 45 45 45 45 44 43 42 41 40 39 37 35 34 32 31
4 5 13 18 19 20 18 10 9 13 14 16 16 14 15 15 14 12 13 13 7 4 10 17 10 12 19 14 11 11 6 5 8 8 8 8 6 5 5 5 6 7 7 8 10 12 13 14 13 16 22 26 27 28 29 31 32 34 35 37 37 38 39 41 41 42 42 42 42 43 44 44 44 44 44 43 43 43 42 41 39 37 36 34 33 31
4 6 11 15 18 21 19 9 10 12 11 12 15 15 16 17 17 18 21 18 10 7 17 18 8 12 21 17 13 11 8 10 13 9 6 4 4 5 6 6 8 8 9 11 13 14 15 14 12 15 21 24 26 28 28 29 31 32 34 35 36 37 39 40 40 40 41 41 42 43 43 42 42 42 43 43 43 43 42 41 40 38 36 35 33 31
2 3 3 7 12 17 17 9 9 9 5 5 10 13 15 18 21 22 21 19 15 14 21 21 14 18 19 12 11 10 10 12 10 3 4 6 7 7 7 8 9 9 11 13 14 14 14 13 12 14 19 22 26 29 29 30 32 33 33 34 34 36 37 38 39 39 40 41 41 41 40 40 41 42 42 43 43 43 43 42 41 39 37 35 34 32
2 2 2 3 4 12 15 9 6 8 6 6 8 11 16 19 18 17 15 15 14 16 21 21 20 20 12 5 9 9 6 6 6 6 9 9 9 8 8 9 10 10 12 13 13 13 12 12 12 14 19 24 28 29 30 30 31 31 32 33 34 35 36 37 38 37 38 38 37 37 37 38 40 41 42 43 43 43 43 42 41 39 38 36 35 33
4 2 2 3 3 8 11 9 6 6 5 8 12 17 21 16 11 11 13 14 15 16 19 17 16 18 11 5 6 6 5 8 11 12 10 9 8 9 10 11 11 11 12 13 12 12 13 14 14 15 20 25 27 28 29 30 29 30 31 33 35 35 36 37 37 36 36 35 35 35 36 37 39 40 41 42 42 43 43 42 41 40 39 38 37 35
6 4 1 3 4 7 5 4 4 5 3 7 14 21 21 15 11 12 13 15 17 15 14 13 14 19 14 6 7 7 8 11 13 11 10 9 9 10 11 12 12 12 13 13 12 12 12 12 14 17 20 24 27 29 29 29 30 31 32 32 33 34 36 37 37 35 35 34 34 35 36 37 38 39 41 41 42 42 42 42 42 41 40 39 38 37
6 7 4 4 3 5 3 6 5 4 8 9 8 9 13 15 17 17 15 17 18 15 14 15 16 19 14 8 10 12 11 11 11 11 10 8 7 8 10 11 11 11 11 10 10 9 9 10 13 18 22 24 27 28 28 29 29 29 28 29 30 32 33 34 34 34 33 33 34 34 34 36 37 38 39 40 41 41 41 42 42 42 41 40 39 39
7 8 5 3 2 3 3 6 4 7 9 6 3 2 5 11 16 18 17 19 19 17 18 19 20 20 17 12 12 11 10 9 9 9 8 5 5 7 9 11 11 10 7 6 7 7 8 11 15 19 22 24 26 27 28 29 29 27 27 28 29 30 31 32 32 32 32 32 33 33 34 35 37 37 38 38 39 40 41 42 42 42 41 41 40 40
9 7 4 3 3 2 3 5 8 5 4 6 4 2 0 3 7 9 13 17 18 18 18 20 22 23 19 16 14 9 6 6 6 6 5 5 6 7 8 9 7 6 6 8 9 11 13 17 20 21 23 24 27 28 29 30 30 29 28 29 29 30 31 31 31 31 32 33 34 35 35 36 37 37 37 37 38 39 40 42 43 42 42 41 40 40
9 6 3 4 4 3 4 7 5 4 9 12 7 4 5 5 8 9 9 14 16 16 16 17 20 21 17 17 16 7 1 3 7 7 6 6 6 5 6 6 6 7 8 10 11 12 15 18 20 21 22 24 27 29 29 30 30 30 29 29 30 31 31 31 33 34 36 36 37 37 37 37 37 36 36 36 37 39 41 42 43 42 41 41 40 40
8 7 7 6 4 4 4 5 3 3 9 11 5 5 7 6 7 9 6 10 9 10 12 14 17 19 16 16 12 1 5 3 10 9 6 5 5 4 3 3 4 6 8 9 11 11 13 15 17 19 22 24 26 27 28 29 30 30 29 29 30 30 30 32 35 37 37 37 36 35 35 35 36 36 36 37 39 41 42 42 42 42 42 42 42 42
5 4 6 6 4 3 5 5 4 6 8 5 3 4 4 4 7 8 1 8 6 5 7 10 14 16 13 11 6 5 4 7 11 8 5 6 5 4 4 3 4 5 7 8 10 12 14 16 17 19 21 23 25 26 27 29 30 30 29 29 30 29 30 34 37 36 35 34 34 34 35 35 36 37 38 39 41 42 42 41 40 40 41 42 42 43
3 3 4 6 6 6 8 6 4 5 5 4 5 4 3 4 8 9 2 8 5 4 4 6 9 10 7 5 5 6 6 8 8 6 2 5 4 3 4 5 5 7 8 9 10 12 15 17 18 20 21 22 23 25 27 28 29 29 28 27 27 28 32 36 35 33 32 33 33 34 35 36 37 38 39 40 41 41 41 40 39 39 40 41 41 41
2 2 4 7 8 9 10 7 4 4 5 5 7 6 4 4 6 5 7 5 4 4 4 5 5 7 5 6 6 5 6 6 5 4 1 5 5 5 5 7 9 10 11 12 12 14 16 16 17 18 18 19 21 23 25 27 27 27 26 25 26 31 36 35 32 31 32 32 33 34 35 36 37 38 39 40 40 39 39 39 39 39 39 40 40 39
3 2 2 6 7 7 7 6 4 5 4 5 6 4 4 4 4 7 5 1 4 5 4 3 5 5 4 6 5 5 3 2 2 1 4 5 5 5 5 7 10 11 11 12 12 13 15 14 13 13 14 15 18 21 23 25 26 25 24 25 29 34 34 31 29 30 30 31 31 33 34 35 36 37 38 38 38 37 38 38 38 38 38 38 39 39
5 5 3 5 5 2 3 5 4 4 4 10 11 3 3 4 5 5 2 1 2 4 3 3 4 4 5 5 4 4 2 3 4 5 6 5 5 5 5 6 8 8 9 11 10 11 13 13 11 12 12 13 16 18 21 24 25 24 24 27 30 31 28 26 26 26 27 28 29 31 32 33 34 35 36 37 37 37 37 37 37 37 37 37 38 38
5 5 3 4 5 4 4 6 4 3 5 9 9 4 5 6 5 4 4 3 2 3 3 3 3 4 6 7 6 5 4 4 4 5 5 5 5 5 5 6 7 8 9 10 11 12 14 14 13 13 13 15 16 18 21 23 23 23 25 26 25 22 21 22 22 22 23 25 26 28 29 31 32 33 34 35 36 36 36 36 35 36 36 37 37 36
5 5 4 4 4 3 4 4 2 1 2 3 1 1 3 2 2 5 5 4 3 4 4 4 4 4 5 7 7 5 3 4 4 4 5 5 5 5 5 6 7 9 11 12 13 14 16 17 18 17 16 16 17 18 19 21 21 21 21 18 15 15 15 16 17 18 20 21 23 25 26 28 29 31 32 33 34 35 36 36 35 35 36 36 36 36
2 2 3 2 2 1 1 2 1 1 2 2 2 2 3 1 1 4 4 4 4 4 4 4 5 5 6 6 6 4 4 5 6 5 5 5 5 5 6 7 8 10 13 14 14 14 17 18 19 18 18 16 16 16 17 16 15 14 13 10 9 9 10 11 13 15 16 18 20 21 23 25 27 28 30 31 32 34 35 35 36 36 36 36 36 37
2 2 3 2 3 3 2 3 3 1 3 2 2 3 3 2 1 1 3 4 5 4 4 4 5 6 5 5 6 6 5 5 6 6 5 5 5 5 5 6 8 10 13 14 14 15 18 18 17 17 17 15 14 14 14 13 11 9 7 6 6 6 7 9 10 12 13 15 17 18 20 22 24 25 27 29 30 32 33 34 35 35 35 36 37 37
2 4 4 2 4 4 3 3 2 2 4 4 3 3 3 1 1 1 2 4 4 4 4 4 5 6 5 4 6 8 6 5 6 7 5 4 5 5 5 6 9 10 11 12 13 14 16 17 16 15 14 13 13 12 12 12 11 9 7 6 7 7 8 9 11 11 12 13 14 16 18 20 21 23 25 27 29 31 33 34 35 36 38 39 39 39
4 5 4 3 3 1 3 3 2 1 4 5 6 5 5 4 3 3 3 4 5 5 5 4 3 3 5 5 6 8 7 5 5 6 6 5 4 5 5 7 9 11 11 12 11 12 14 15 15 14 13 11 11 12 12 12 12 10 9 7 7 7 8 9 10 11 12 13 14 16 17 19 21 22 24 26 28 30 32 34 35 37 39 40 40 39
5 5 4 4 4 3 5 6 7 4 2 6 9 9 7 6 6 5 4 4 5 5 6 6 4 3 3 4 5 7 7 6 5 6 6 5 5 6 8 10 11 11 11 12 11 10 11 11 11 12 11 10 9 10 10 9 9 8 8 7 7 6 7 7 9 10 12 13 15 16 17 19 20 22 24 25 27 28 30 31 32 34 36 37 36 36
5 7 7 7 5 6 7 9 8 4 1 4 7 8 8 7 7 7 6 5 5 5 6 7 6 4 3 2 2 5 7 6 5 6 6 5 5 8 11 12 13 13 13 13 13 11 10 10 9 9 9 8 7 7 6 6 5 5 6 6 6 7 8 8 10 11 13 14 15 16 17 18 19 20 22 24 25 26 27 28 29 31 32 33 33 32
Wind_Direction
101 108 188 202 210 208 198 197 202 184 143 141 142 150 197 215 268 258 261 271 181 158 243 223 228 248 252 259 255 215 191 221 238 240 235 223 216 212 209 211 207 206 198 180 181 184 186 183 176 173 175 174 173 173 174 173 170 169 172 169 162 161 162 159 154 150 150 148 145 143 142 141 139 140 141 140 139 139 138 138 139 137 135 136 136 135
91 151 222 223 210 202 198 201 210 199 160 173 174 241 263 219 252 259 243 284 188 170 262 246 238 257 254 258 263 199 177 222 227 226 232 224 219 215 210 213 206 190 166 171 182 183 184 183 178 176 176 175 171 170 175 175 170 169 172 170 163 160 160 158 156 152 150 151 152 151 146 142 140 140 140 139 138 137 137 137 136 134 134 135 134 135
101 216 239 229 190 163 188 186 188 221 232 246 226 250 272 242 268 280 270 306 50 177 263 279 256 260 258 258 261 227 205 228 223 218 227 223 218 215 209 210 196 176 173 178 184 182 183 183 179 180 178 178 175 170 175 176 171 169 169 167 162 160 160 158 157 155 152 152 155 154 148 145 142 138 138 137 136 137 137 135 134 133 134 134 133 133
171 244 245 216 151 149 209 188 157 194 246 237 220 221 253 247 247 277 289 314 294 223 263 287 287 268 263 263 258 239 223 237 235 225 232 226 220 218 209 205 193 185 184 181 183 181 182 183 183 184 182 181 178 173 175 174 173 171 168 167 164 163 164 162 161 159 157 154 152 150 146 145 143 138 137 136 135 138 137 135 134 133 133 133 131 129
210 240 236 154 153 172 198 205 169 174 246 245 217 208 228 234 217 230 280 325 335 335 334 324 306 276 252 246 251 254 244 252 245 230 238 235 227 223 213 209 200 191 184 179 181 181 183 185 186 187 186 183 180 178 177 175 175 174 172 171 170 170 169 168 166 164 162 157 150 144 140 140 138 136 137 137 135 138 137 135 134 132 133 132 129 128
236 234 106 111 150 173 183 212 195 179 216 264 228 209 215 216 216 230 344 21 2 329 329 13 303 279 263 241 251 281 314 262 245 224 237 237 227 220 213 208 197 190 187 182 181 181 182 184 185 187 188 185 182 181 178 177 177 176 176 176 173 174 174 172 170 169 169 162 154 149 145 141 138 135 138 140 139 139 138 136 134 133 133 132 130 128
233 222 164 136 147 162 181 223 220 179 177 259 240 203 201 192 195 223 167 75 261 262 295 67 195 268 284 243 242 256 260 260 252 239 245 242 228 219 215 206 189 185 185 184 183 181 181 182 183 189 191 187 184 182 179 178 179 177 178 178 176 176 177 175 171 169 168 164 161 160 156 150 146 142 140 141 141 140 138 136 135 134 134 133 132 130
187 201 199 172 156 163 185 226 221 171 156 240 241 162 161 172 191 211 179 179 225 254 311 355 138 265 278 254 239 229 240 263 265 257 256 247 233 224 218 205 191 189 184 181 184 182 184 185 185 188 190 188 184 182 181 181 181 180 179 180 180 179 179 177 172 169 169 166 164 162 157 153 151 147 142 141 141 140 139 137 137 136 136 135 133 131
155 176 196 183 178 195 204 214 189 160 166 242 203 128 130 154 163 147 138 178 285 24 294 287 128 253 269 266 284 219 232 261 265 257 256 249 237 225 218 207 195 192 186 183 185 184 186 187 187 188 188 187 185 183 184 183 182 182 181 181 181 181 179 177 173 171 170 169 167 164 159 152 148 146 144 142 141 140 141 140 139 139 138 136 134 132
145 187 192 170 180 208 205 207 175 167 191 211 134 96 70 76 78 75 107 124 42 27 245 244 189 238 268 244 209 28 240 251 258 257 257 252 238 220 213 208 195 187 186 187 187 186 187 187 187 187 185 185 184 184 185 184 183 183 181 181 181 181 179 177 175 173 172 171 170 168 162 154 148 146 144 143 142 143 144 142 142 142 140 138 136 133
313 274 199 163 183 187 147 103 164 178 173 136 100 66 44 32 37 41 62 88 46 269 240 225 200 209 270 262 195 213 226 230 242 261 272 271 245 221 212 203 192 185 183 185 184 184 185 185 184 183 183 183 183 183 185 184 183 183 182 182 182 182 180 178 177 176 175 174 173 170 165 158 152 149 148 147 146 147 148 146 145 145 143 141 138 135
339 350 259 244 169 123 99 82 36 34 113 108 89 82 65 350 10 18 -0 48 230 253 241 234 210 195 237 258 229 244 260 247 229 243 265 270 253 227 215 202 191 186 180 177 177 178 176 177 179 181 182 182 180 181 183 184 184 183 183 183 182 182 181 180 179 179 177 175 174 170 166 161 157 155 154 153 152 152 153 151 150 148 146 144 141 140
313 240 265 314 229 142 116 101 31 12 55 97 103 108 112 305 352 345 303 201 232 254 265 276 202 200 239 250 251 262 269 258 237 232 243 251 250 233 214 201 186 177 176 177 178 177 175 175 177 180 181 180 180 181 182 183 184 184 184 184 183 181 180 180 180 180 179 176 173 169 166 163 160 159 159 158 157 157 157 155 153 152 150 148 146 146
269 294 308 292 274 193 156 163 181 213 167 150 144 140 152 172 171 264 259 265 259 264 295 333 156 239 273 260 236 239 247 251 250 248 238 231 241 240 217 194 180 176 179 180 180 179 181 180 179 180 181 181 181 182 182 183 183 183 183 183 183 180 178 179 180 180 179 176 173 170 167 166 164 163 163 163 162 161 161 158 156 154 153 151 150 149
212 284 216 183 221 188 182 192 169 139 158 181 156 142 160 161 171 217 212 220 251 277 304 303 184 204 225 247 232 231 251 266 267 271 264 248 244 239 200 176 175 182 182 182 184 185 185 182 180 181 183 183 182 182 182 182 182 182 182 182 181 178 177 179 180 180 179 176 173 171 170 169 168 167 167 166 166 164 163 160 158 157 155 154 152 151
196 262 239 204 189 168 182 199 117 107 139 235 121 119 179 183 175 216 203 180 195 295 287 235 229 222 213 261 263 251 278 286 280 285 283 275 269 169 172 183 184 186 184 184 186 187 185 182 182 182 183 184 184 182 182 182 182 182 181 181 181 178 179 181 180 181 181 178 175 173 173 172 171 171 170 169 168 166 164 162 160 159 158 156 155 154
169 273 277 13 25 174 182 173 132 143 179 165 132 171 207 180 155 200 272 47 75 272 260 201 248 285 305 279 264 242 256 272 283 279 268 273 282 202 206 201 192 192 187 188 188 185 183 182 184 185 184 185 184 183 184 184 184 184 182 182 182 181 182 183 182 182 183 182 178 176 175 175 174 174 173 172 170 168 166 164 163 161 160 160 159 158
162 253 280 128 163 253 249 110 67 24 130 130 181 204 171 67 102 125 252 349 33 258 266 217 239 267 273 273 299 192 232 255 264 260 260 275 256 228 225 206 199 197 186 189 188 183 185 183 185 187 186 187 187 185 186 186 187 186 185 185 185 185 183 184 185 184 185 185 182 179 178 178 178 177 176 174 172 170 168 167 166 165 164 164 163 162
158 210 294 102 172 282 5 96 58 2 77 130 184 188 118 130 203 117 166 227 196 252 284 258 239 244 212 231 298 177 209 232 245 246 252 257 237 230 229 207 200 195 182 189 189 184 188 187 187 186 186 188 188 188 188 187 187 187 188 189 189 189 187 186 186 186 187 188 186 183 181 181 180 179 178 177 174 173 171 170 169 169 168 167 167 166
147 196 266 336 290 318 28 134 178 228 25 62 119 151 101 142 176 161 167 167 157 231 284 285 249 235 212 206 202 206 208 213 229 235 238 243 237 230 221 202 196 193 192 194 191 189 188 187 189 187 186 188 188 190 190 189 188 188 189 191 191 191 189 187 188 188 187 188 187 186 184 183 183 181 181 179 177 176 174 173 172 172 172 171 170 170
129 208 230 320 340 205 197 202 186 181 175 163 162 169 180 134 111 166 197 132 136 176 240 275 274 253 217 195 194 204 209 208 216 222 228 240 241 230 214 202 198 196 198 197 189 189 186 184 188 188 188 189 189 191 192 191 190 190 190 192 192 191 189 188 189 189 188 188 187 187 186 185 185 184 183 182 181 180 178 177 176 176 176 175 173 174
184 197 170 168 240 205 223 247 206 195 190 180 185 187 185 170 137 162 246 214 144 190 189 224 276 268 221 192 199 203 207 207 212 217 227 242 242 232 214 201 201 198 197 197 187 184 184 183 185 186 187 189 189 191 193 192 191 191 191 192 192 192 191 189 189 189 189 188 188 189 188 187 186 186 186 185 184 183 181 180 180 179 179 178 177 177
151 116 136 176 223 220 238 271 246 219 201 156 198 193 175 177 161 164 220 220 158 241 192 134 283 277 233 186 214 228 224 221 226 220 227 248 251 239 220 204 204 203 195 189 185 183 184 184 184 185 186 188 191 192 192 192 193 192 192 192 193 193 192 191 190 189 189 188 188 189 189 188 188 188 188 188 186 186 184 183 183 183 183 181 180 180
114 124 167 216 302 311 301 311 353 27 97 141 239 180 167 201 198 175 200 181 157 225 189 127 268 268 304 289 251 268 270 272 273 232 221 251 267 249 222 208 200 200 189 181 183 180 180 182 182 185 188 190 192 194 194 193 193 193 193 193 194 195 193 191 189 189 188 188 189 189 189 189 190 190 191 190 189 188 188 187 186 186 185 184 183 182
175 175 157 155 260 322 325 293 289 289 193 193 219 200 195 204 195 168 104 108 227 228 179 179 255 252 292 321 309 324 321 300 275 251 223 245 263 252 220 199 191 190 183 180 181 176 177 181 185 189 192 194 195 196 195 195 194 194 194 194 195 194 193 191 190 189 189 188 188 189 190 190 191 192 193 193 192 191 190 189 189 188 188 187 186 184
174 177 164 183 216 224 220 220 219 197 165 192 213 198 202 203 190 190 190 192 236 230 158 193 249 253 285 325 309 317 333 295 271 271 259 244 253 253 216 193 191 187 186 186 182 180 183 185 190 193 194 196 197 197 196 196 195 195 194 195 195 195 193 191 190 189 188 189 189 190 191 192 193 193 194 195 193 192 192 192 191 190 190 190 188 187
139 182 191 199 213 222 227 225 165 132 148 200 209 193 197 205 197 194 212 219 220 173 182 223 238 256 268 268 280 285 274 264 271 279 272 255 253 251 222 202 198 191 189 186 180 183 189 193 197 196 196 197 197 198 198 197 196 195 194 195 196 195 193 191 190 189 189 189 190 191 192 194 194 194 195 196 195 194 194 194 194 193 191 192 191 190
114 205 207 207 215 225 232 222 154 154 177 198 202 193 197 204 195 194 215 220 179 119 250 241 218 247 262 253 246 254 250 257 259 248 250 255 249 238 210 188 195 193 187 184 187 193 195 198 199 196 196 197 196 198 199 198 198 196 195 196 195 195 193 192 191 190 190 190 191 193 195 195 196 196 196 197 196 195 196 196 196 195 193 193 194 194
140 225 217 211 221 232 235 213 165 176 184 189 197 198 198 199 197 202 216 220 186 180 248 251 196 219 252 255 245 239 221 232 242 234 231 229 213 209 192 190 203 197 190 194 199 202 199 199 198 196 197 195 193 195 197 197 198 197 196 196 195 194 194 192 191 191 191 192 194 195 196 196 196 197 197 197 196 196 197 197 197 196 196 195 196 196
177 245 223 202 227 244 245 217 168 176 163 174 203 204 202 205 205 208 217 222 213 217 243 253 243 241 252 256 246 230 213 232 247 235 205 211 214 209 197 207 214 202 200 205 206 206 202 198 195 193 194 195 194 194 194 195 197 196 195 195 194 194 194 193 193 193 194 195 196 197 196 196 197 197 198 198 198 198 198 198 198 198 197 197 198 198
203 233 58 129 222 254 255 239 173 165 183 217 226 221 218 216 212 214 221 224 222 230 242 250 258 260 256 230 239 236 209 231 251 232 224 225 220 211 206 218 221 210 211 215 212 209 203 196 191 189 194 197 197 195 193 194 195 194 194 194 193 194 193 193 194 195 197 197 197 197 197 197 197 198 198 199 199 199 199 200 200 199 199 199 199 200
167 207 48 97 200 249 254 250 216 168 181 231 242 236 227 218 210 214 218 218 214 224 239 246 255 259 249 199 228 231 185 214 234 230 230 232 219 208 210 220 220 215 216 216 213 207 200 196 193 193 196 197 196 194 194 192 191 192 194 194 193 193 192 194 196 197 198 199 198 199 199 199 198 199 200 200 200 201 201 201 201 201 201 201 202 202
155 175 134 141 213 254 250 215 189 148 159 232 240 237 227 211 203 214 220 223 217 213 227 233 237 249 248 216 223 232 210 221 235 230 226 228 218 210 216 221 221 219 217 215 211 206 201 199 197 196 196 195 195 195 194 191 191 193 195 195 193 192 192 194 196 197 199 200 200 201 201 200 200 200 201 201 202 202 202 202 203 203 204 204 204 205
166 177 188 168 201 249 204 119 124 175 213 233 243 238 221 204 204 213 220 224 219 212 223 233 239 250 251 228 229 239 229 224 231 230 226 224 213 211 221 228 228 226 221 212 204 199 194 193 193 195 196 196 196 194 192 193 194 195 195 194 193 192 193 194 195 197 200 201 202 204 203 202 202 202 202 203 203 204 204 204 205 206 206 207 206 207
176 182 187 167 180 220 141 117 171 213 222 246 331 355 223 201 199 211 225 230 224 217 226 239 247 252 251 244 241 240 235 235 241 244 246 245 221 213 222 231 232 228 214 189 181 182 184 187 188 191 195 195 193 190 189 192 193 192 193 193 192 193 194 195 197 199 201 203 205 206 205 204 204 204 204 205 205 205 206 207 208 208 208 209 209 210
175 181 170 159 184 178 133 183 218 238 286 287 303 356 71 132 158 198 235 244 233 221 223 233 243 249 251 254 253 244 238 265 281 270 252 240 226 218 225 232 223 202 188 180 183 189 189 190 190 190 190 189 188 187 188 190 190 189 191 192 192 194 196 198 200 202 204 206 208 208 208 207 206 205 206 206 206 207 208 209 210 210 210 211 212 213
160 162 167 186 195 186 196 221 238 327 304 274 253 194 167 154 155 173 224 250 237 219 217 226 240 248 250 253 258 255 123 328 300 276 243 230 229 221 221 216 187 179 188 187 190 194 193 191 190 187 185 184 185 187 188 188 187 187 188 190 193 196 197 199 203 206 208 210 211 211 210 208 207 206 207 207 208 210 211 212 213 213 213 213 214 214
168 166 177 194 202 188 210 236 241 266 266 260 236 181 176 178 168 162 203 255 239 206 205 216 232 242 243 248 254 207 93 282 276 266 235 211 207 182 168 181 174 175 178 173 175 178 179 182 182 181 182 181 183 187 187 186 186 186 187 190 194 196 198 202 208 211 211 212 212 212 211 210 209 209 209 210 212 214 215 215 215 215 215 216 217 218
195 178 173 187 199 186 205 229 218 225 248 245 185 179 184 174 137 114 163 264 240 198 203 208 224 238 242 244 228 128 137 246 262 261 220 183 184 162 134 119 115 133 149 161 168 165 164 169 171 173 178 179 181 186 187 186 186 185 187 192 195 196 201 208 213 214 212 213 214 214 214 213 212 213 213 214 217 218 218 218 218 219 219 219 221 222
188 179 176 196 208 204 213 227 226 237 251 208 176 195 221 172 125 109 235 258 232 219 209 186 218 245 242 217 173 152 191 231 252 270 223 149 131 94 113 123 117 120 124 132 149 157 157 161 163 165 172 178 180 182 184 185 185 186 191 195 195 200 209 215 217 216 215 216 216 216 217 216 216 216 217 219 221 221 222 222 222 222 222 223 224 224
176 180 183 205 217 215 218 229 242 248 238 194 179 187 177 141 131 170 229 236 182 211 218 174 211 243 215 178 172 186 223 245 263 289 84 117 105 68 73 91 95 99 106 116 130 141 144 150 158 162 169 175 177 179 183 184 185 189 194 194 198 209 217 218 218 218 217 217 217 218 219 219 220 221 222 223 224 224 225 226 225 226 226 227 227 227
161 170 183 204 214 219 221 223 241 261 236 149 139 167 164 149 183 212 227 153 147 195 215 195 212 217 174 157 167 187 233 318 349 64 87 96 101 86 72 79 86 88 96 108 121 132 135 138 146 155 164 173 177 182 185 186 187 191 193 196 206 217 220 218 218 218 217 217 219 220 221 222 223 224 225 226 226 226 228 229 229 229 230 230 230 230
160 159 184 203 194 186 215 211 217 254 210 135 121 129 207 197 203 199 154 89 177 190 182 193 211 192 155 136 137 150 125 54 57 79 79 71 77 81 71 75 86 90 97 108 122 138 141 140 145 156 166 175 182 186 188 188 188 189 192 202 214 220 218 216 218 218 218 219 221 223 224 225 226 227 227 228 228 228 230 231 230 231 231 231 232 233
173 170 186 205 184 157 191 213 215 221 184 150 135 160 206 199 190 167 140 137 194 201 180 171 195 189 159 138 132 135 120 97 97 100 97 92 93 90 80 80 93 102 109 118 132 145 148 145 145 150 159 170 178 183 187 188 186 186 195 208 217 218 215 217 218 218 220 222 224 226 228 229 230 231 230 231 231 230 231 232 231 231 232 232 232 233
203 181 162 179 186 170 185 214 250 292 192 175 144 242 229 213 174 159 140 131 174 200 184 157 166 176 150 134 132 128 126 135 130 120 119 120 117 114 110 108 114 121 125 128 135 147 151 147 143 141 145 158 170 175 181 186 186 188 198 210 216 217 217 219 218 219 223 226 228 230 232 232 233 233 233 233 232 232 231 232 231 231 232 232 232 232
228 156 123 138 182 243 240 187 180 319 282 274 300 268 252 288 172 158 144 135 165 186 180 159 161 160 150 142 131 118 137 150 133 118 126 129 123 122 119 118 123 131 136 136 138 145 147 142 140 140 141 148 161 168 174 183 187 190 197 205 211 217 220 218 218 222 226 229 232 233 233 233 234 235 235 235 235 235 235 234 233 233 232 232 232 233
280 168 128 133 171 193 220 189 167 216 255 254 300 292 267 299 346 163 171 169 163 158 152 143 141 141 142 141 131 131 149 149 127 121 130 129 130 137 134 130 133 137 141 141 140 144 145 141 140 143 143 146 155 163 171 179 184 187 191 195 201 209 215 216 218 222 226 229 233 234 233 235 236 236 236 236 236 236 237 236 236 235 233 233 232 232
218 155 148 190 191 183 221 232 223 282 271 234 231 256 230 192 42 48 156 158 134 114 106 109 123 135 140 141 139 140 149 155 139 135 140 140 140 141 137 136 135 134 136 139 141 145 146 144 144 147 147 148 156 166 174 180 186 190 190 192 195 198 208 217 220 222 227 229 231 233 234 236 237 237 237 237 237 237 236 236 236 235 236 238 237 235
139 150 169 175 156 166 277 245 200 293 288 244 219 220 213 183 147 127 127 123 110 104 97 83 84 125 146 156 153 140 144 167 165 145 141 145 143 137 135 137 136 136 139 142 144 148 150 148 149 149 148 152 165 177 182 186 193 199 200 202 204 201 206 217 221 226 230 231 232 234 236 237 237 238 239 239 239 240 240 240 239 239 242 245 244 242
142 164 168 133 144 208 227 195 167 156 216 223 213 206 199 179 156 142 132 121 119 125 121 104 73 62 104 141 155 148 148 162 167 148 139 142 148 145 139 135 134 137 144 146 146 149 151 150 150 151 148 149 163 178 189 196 203 211 218 227 233 233 231 229 228 230 231 233 235 237 238 239 239 240 241 241 242 243 244 243 243 244 247 249 248 248
171 179 173 163 186 217 199 176 169 159 187 223 207 184 172 165 154 148 152 154 156 160 148 131 119 98 78 76 143 155 151 151 152 140 126 122 141 146 145 145 144 143 147 152 153 152 150 148 152 154 152 152 155 161 169 176 181 193 208 220 230 238 240 238 236 236 237 239 242 243 243 245 245 245 245 245 245 247 248 248 248 247 247 249 251 252